Tracking 19242 objects as of 19-Sep-2018
HD Live streaming from Space Station
objects crossing your sky now

TELKOM-4

Track TELKOM-4 now!
TELKOM-4 is classified as:


NORAD ID: 43587
Int'l Code: 2018-064A
Perigee: 35,786.5 km
Apogee: 35,802.7 km
Inclination: 0.0 °
Period: 1,436.1 minutes
Semi major axis: 42165 km
RCS: Unknown
Launch date: August 7, 2018
Source: Indonesia (INDO)
Launch site: AIR FORCE EASTERN TEST RANGE (AFETR)
aabbcc
Your satellite tracking list
Your tracking list is empty




NASA's NSSDC Master Catalog

Two Line Element Set (TLE):
1 43587U 18064A   18261.70679011 -.00000362  00000-0  00000+0 0  9996
2 43587   0.0415 272.7617 0001914 267.0459 180.2002  1.00268755   512
Source of the keplerian elements: AFSPC